Location: Zapote
(9.9191°N, 84.0597°W)
Time: 16:36:51
(UTC-06:00)

Transit 2A - Pass Details

Date: 10 March 2021
Orbit: 602 x 957 km, 66.7° (Epoch: 15 April)

Event Time Altitude Azimuth Distance (km) Brightness Sun altitude
Rises 16:15:29 0° 234° (SW) 3,487 10.5 21.6°
Reaches altitude 10° 16:19:04 10° 255° (WSW) 2,481 10.8 20.7°
Maximum altitude 16:22:27 16° 291° (WNW) 2,016 9.5 19.9°
Drops below altitude 10° 16:25:41 10° 329° (NNW) 2,336 8.9 19.1°
Sets 16:28:56 0° 351° (N) 3,184 9.2 18.3°
